This is the latest recevied weather packets stored in our database for station/object KJ7BRE-1. If no packets are shown the sender has not sent any weather packets the latest 10 day(s).
| Time | Temp. | Humidity | Pressure | Rain* | Wind** | Luminosity | Snow |
|---|---|---|---|---|---|---|---|
| 1777678894 | 24.44° C | 45% | 1007.8 hPa | 0 mm | - | - | - |
| 1777678593 | 23.89° C | 45% | 1007.5 hPa | 0 mm | - | - | - |
| 1777678292 | 23.89° C | 44% | 1007.8 hPa | 0 mm | - | - | - |
| 1777677990 | 23.89° C | 44% | 1007.8 hPa | 0 mm | - | - | - |
| 1777677689 | 24.44° C | 44% | 1008.1 hPa | 0 mm | - | - | - |
| 1777677388 | 23.33° C | 46% | 1007.8 hPa | 0 mm | - | - | - |
| 1777677087 | 23.89° C | 45% | 1008.1 hPa | 0 mm | - | - | - |
| 1777676786 | 23.89° C | 46% | 1008.1 hPa | 0 mm | - | - | - |
| 1777676484 | 23.89° C | 45% | 1008.1 hPa | 0 mm | - | - | - |
| 1777676183 | 22.78° C | 47% | 1008.5 hPa | 0 mm | - | - | - |
| 1777675882 | 23.33° C | 47% | 1008.5 hPa | 0 mm | - | - | - |
| 1777675580 | 23.89° C | 46% | 1008.5 hPa | 0 mm | - | - | - |
| 1777675279 | 23.89° C | 45% | 1008.5 hPa | 0 mm | - | - | - |
| 1777674978 | 23.89° C | 46% | 1008.5 hPa | 0 mm | - | - | - |
| 1777674677 | 23.33° C | 46% | 1008.5 hPa | 0 mm | - | - | - |
| 1777674386 | 23.89° C | 46% | 1008.5 hPa | 0 mm | - | - | - |
| 1777674075 | 23.33° C | 47% | 1008.8 hPa | 0 mm | - | - | - |
| 1777673773 | 23.89° C | 48% | 1008.5 hPa | 0 mm | - | - | - |
| 1777673472 | 22.78° C | 48% | 1008.8 hPa | 0 mm | - | - | - |
| 1777673171 | 22.78° C | 48% | 1008.8 hPa | 0 mm | - | - | - |
| 1777672869 | 22.78° C | 50% | 1008.8 hPa | 0 mm | - | - | - |
| 1777672568 | 22.78° C | 49% | 1008.8 hPa | 0 mm | - | - | - |
| 1777672267 | 22.22° C | 49% | 1009.1 hPa | 0 mm | - | - | - |
| 1777671966 | 22.22° C | 48% | 1009.1 hPa | 0 mm | - | - | - |
| 1777671664 | 22.22° C | 49% | 1009.1 hPa | 0 mm | - | - | - |
* Rain latest hour (hover to see other rain measurements)
** Current wind speed in m/s (hover to see current wind gust speed)